• In Czech Republic
  • List of Countries
  • For 7 days
  • Water Temperature
  • Satellite Maps
  • Weather Map
  • Weather Widgets
  • user-avatar
    Login

    Hourly Weather Ramsgate

    Today, 20 November, Monday

    Time Temperature Precipitation Wind Pressure Humidity
    00:00 +3°C° 0 mm 5 mps 765 mmHg 83%
    01:00 +3°C° 0 mm 5 mps 765 mmHg 82%
    02:00 +4°C° 0 mm 6 mps 765 mmHg 81%
    03:00 +5°C° 0 mm 6 mps 764 mmHg 81%
    04:00 +5°C° 0 mm 7 mps 764 mmHg 84%
    05:00 +6°C° 0 mm 8 mps 763 mmHg 87%
    06:00 +7°C° 0 mm 8 mps 762 mmHg 90%
    07:00 +7°C° 0.1 mm 9 mps 762 mmHg 89%
    08:00 +8°C° 0.1 mm 10 mps 761 mmHg 87%
    09:00 +8°C° 0.1 mm 10 mps 761 mmHg 85%
    10:00 +9°C° 0.1 mm 11 mps 761 mmHg 84%
    11:00 +9°C° 0.1 mm 11 mps 760 mmHg 83%
    12:00 +11°C° 0.1 mm 11 mps 760 mmHg 83%
    13:00 +11°C° 0 mm 11 mps 760 mmHg 83%
    14:00 +11°C° 0 mm 11 mps 759 mmHg 84%
    15:00 +11°C° 0 mm 11 mps 759 mmHg 85%
    16:00 +11°C° 0.1 mm 11 mps 759 mmHg 86%
    17:00 +11°C° 0.1 mm 11 mps 759 mmHg 87%
    18:00 +11°C° 0.1 mm 11 mps 759 mmHg 88%
    19:00 +11°C° 0.2 mm 10 mps 759 mmHg 88%
    20:00 +12°C° 0.2 mm 10 mps 759 mmHg 89%
    21:00 +12°C° 0.2 mm 9 mps 759 mmHg 90%
    22:00 +12°C° 0.1 mm 9 mps 759 mmHg 90%
    23:00 +12°C° 0.1 mm 9 mps 759 mmHg 90%

    Tomorrow, 21 November, Tuesday

    Time Temperature Precipitation Wind Pressure Humidity
    00:00 +12°C° 0.1 mm 9 mps 759 mmHg 90%
    01:00 +12°C° 0.3 mm 9 mps 759 mmHg 90%
    02:00 +12°C° 0.3 mm 9 mps 758 mmHg 90%
    03:00 +12°C° 0.3 mm 9 mps 758 mmHg 89%
    04:00 +11°C° 0 mm 9 mps 758 mmHg 89%
    05:00 +11°C° 0 mm 9 mps 758 mmHg 90%
    06:00 +11°C° 0 mm 9 mps 758 mmHg 90%
    07:00 +11°C° 0 mm 8 mps 758 mmHg 89%
    08:00 +11°C° 0 mm 8 mps 758 mmHg 89%
    09:00 +11°C° 0 mm 8 mps 758 mmHg 88%
    10:00 +11°C° 0 mm 9 mps 758 mmHg 86%
    11:00 +12°C° 0 mm 9 mps 757 mmHg 83%
    12:00 +12°C° 0 mm 9 mps 757 mmHg 81%
    13:00 +12°C° 0 mm 10 mps 757 mmHg 81%
    14:00 +12°C° 0 mm 10 mps 756 mmHg 82%
    15:00 +12°C° 0 mm 10 mps 756 mmHg 82%
    16:00 +12°C° 0 mm 10 mps 756 mmHg 82%
    17:00 +12°C° 0 mm 10 mps 755 mmHg 82%
    18:00 +12°C° 0 mm 10 mps 755 mmHg 82%
    19:00 +12°C° 0 mm 10 mps 755 mmHg 82%
    20:00 +12°C° 0 mm 11 mps 754 mmHg 81%
    21:00 +12°C° 0 mm 11 mps 754 mmHg 81%
    22:00 +12°C° 0 mm 11 mps 754 mmHg 80%
    23:00 +12°C° 0 mm 11 mps 754 mmHg 80%

    Day after tomorrow, 22 November, Wednesday

    Time Temperature Precipitation Wind Pressure Humidity
    00:00 +12°C° 0 mm 11 mps 754 mmHg 80%
    01:00 +12°C° 0 mm 11 mps 753 mmHg 80%
    02:00 +12°C° 0 mm 11 mps 753 mmHg 80%
    03:00 +12°C° 0 mm 12 mps 753 mmHg 81%
    04:00 +12°C° 0 mm 11 mps 753 mmHg 81%
    05:00 +12°C° 0 mm 11 mps 752 mmHg 82%
    06:00 +12°C° 0 mm 11 mps 752 mmHg 82%
    07:00 +12°C° 0 mm 11 mps 752 mmHg 81%
    08:00 +12°C° 0 mm 11 mps 752 mmHg 79%
    09:00 +12°C° 0 mm 11 mps 752 mmHg 77%
    10:00 +12°C° 0 mm 11 mps 752 mmHg 71%
    11:00 +13°C° 0 mm 11 mps 751 mmHg 64%
    12:00 +14°C° 0 mm 11 mps 751 mmHg 57%
    13:00 +13°C° 0 mm 11 mps 750 mmHg 57%
    14:00 +13°C° 0 mm 11 mps 750 mmHg 57%
    15:00 +13°C° 0 mm 11 mps 749 mmHg 56%
    16:00 +13°C° 0 mm 12 mps 748 mmHg 56%
    17:00 +13°C° 0 mm 13 mps 748 mmHg 55%
    18:00 +13°C° 0 mm 13 mps 747 mmHg 54%
    19:00 +13°C° 0 mm 14 mps 747 mmHg 59%
    20:00 +13°C° 0 mm 14 mps 747 mmHg 64%
    21:00 +13°C° 0 mm 15 mps 747 mmHg 68%
    22:00 +13°C° 0.1 mm 15 mps 746 mmHg 70%
    23:00 +13°C° 0.1 mm 15 mps 746 mmHg 71%

    23 November, Thursday

    Time Temperature Precipitation Wind Pressure Humidity
    00:00 +14°C° 0.1 mm 15 mps 746 mmHg 72%
    01:00 +13°C° 0.4 mm 15 mps 746 mmHg 74%
    02:00 +13°C° 0.4 mm 15 mps 746 mmHg 75%
    03:00 +13°C° 0.4 mm 15 mps 746 mmHg 77%
    04:00 +13°C° 0 mm 14 mps 747 mmHg 78%
    05:00 +13°C° 0 mm 13 mps 748 mmHg 79%
    06:00 +13°C° 0 mm 12 mps 749 mmHg 81%
    07:00 +13°C° 0 mm 12 mps 749 mmHg 81%
    08:00 +13°C° 0 mm 11 mps 750 mmHg 81%
    09:00 +13°C° 0 mm 11 mps 751 mmHg 81%
    10:00 +13°C° 0.1 mm 11 mps 752 mmHg 80%
    11:00 +14°C° 0.1 mm 11 mps 752 mmHg 79%
    12:00 +14°C° 0.1 mm 11 mps 753 mmHg 78%
    13:00 +14°C° 0 mm 11 mps 753 mmHg 78%
    14:00 +14°C° 0 mm 10 mps 753 mmHg 78%
    15:00 +14°C° 0 mm 10 mps 753 mmHg 79%
    16:00 +14°C° 0 mm 10 mps 753 mmHg 79%
    17:00 +14°C° 0 mm 11 mps 753 mmHg 80%
    18:00 +14°C° 0 mm 11 mps 754 mmHg 80%
    19:00 +14°C° 0 mm 11 mps 754 mmHg 80%
    20:00 +14°C° 0 mm 11 mps 754 mmHg 80%
    21:00 +14°C° 0 mm 12 mps 754 mmHg 80%
    22:00 +14°C° 0 mm 12 mps 753 mmHg 79%
    23:00 +14°C° 0 mm 12 mps 753 mmHg 77%

    24 November, Friday

    Time Temperature Precipitation Wind Pressure Humidity
    00:00 +14°C° 0 mm 13 mps 752 mmHg 76%
    01:00 +14°C° 0 mm 13 mps 752 mmHg 76%
    02:00 +14°C° 0 mm 14 mps 751 mmHg 76%
    03:00 +14°C° 0 mm 14 mps 751 mmHg 76%
    04:00 +14°C° 0.9 mm 14 mps 751 mmHg 78%
    05:00 +13°C° 0.9 mm 14 mps 751 mmHg 81%
    06:00 +13°C° 0.9 mm 14 mps 751 mmHg 83%
    07:00 +13°C° 0.4 mm 14 mps 751 mmHg 82%
    08:00 +13°C° 0.4 mm 13 mps 752 mmHg 81%
    09:00 +13°C° 0.4 mm 12 mps 752 mmHg 80%
    10:00 +12°C° 0.8 mm 11 mps 752 mmHg 81%
    11:00 +12°C° 0.8 mm 11 mps 752 mmHg 83%
    12:00 +12°C° 0.8 mm 10 mps 752 mmHg 84%
    13:00 +12°C° 1.5 mm 10 mps 752 mmHg 85%
    14:00 +12°C° 1.5 mm 10 mps 752 mmHg 85%
    15:00 +11°C° 1.5 mm 9 mps 752 mmHg 86%
    16:00 +11°C° 0.9 mm 8 mps 752 mmHg 85%
    17:00 +10°C° 0.9 mm 7 mps 752 mmHg 84%
    18:00 +10°C° 0.9 mm 7 mps 752 mmHg 82%
    19:00 +9°C° 1.4 mm 6 mps 752 mmHg 83%
    20:00 +9°C° 1.4 mm 5 mps 753 mmHg 84%
    21:00 +10°C° 1.4 mm 4 mps 753 mmHg 84%
    22:00 +10°C° 1 mm 4 mps 753 mmHg 85%
    23:00 +8°C° 1 mm 4 mps 753 mmHg 87%

    25 November, Saturday

    Time Temperature Precipitation Wind Pressure Humidity
    00:00 +8°C° 1 mm 4 mps 753 mmHg 88%
    01:00 +8°C° 0.5 mm 4 mps 752 mmHg 89%
    02:00 +8°C° 0.5 mm 5 mps 752 mmHg 89%
    03:00 +7°C° 0.5 mm 5 mps 752 mmHg 90%
    04:00 +7°C° 1.5 mm 5 mps 751 mmHg 91%
    05:00 +7°C° 1.5 mm 6 mps 751 mmHg 91%
    06:00 +7°C° 1.5 mm 6 mps 750 mmHg 91%
    07:00 +7°C° 2.4 mm 6 mps 750 mmHg 91%
    08:00 +7°C° 2.4 mm 6 mps 750 mmHg 90%
    09:00 +7°C° 2.4 mm 6 mps 750 mmHg 89%
    10:00 +7°C° 1.2 mm 6 mps 751 mmHg 87%
    11:00 +7°C° 1.2 mm 6 mps 752 mmHg 84%
    12:00 +6°C° 1.2 mm 7 mps 752 mmHg 81%
    13:00 +5°C° 0.6 mm 8 mps 753 mmHg 80%
    14:00 +5°C° 0.6 mm 9 mps 754 mmHg 79%
    15:00 +5°C° 0.6 mm 10 mps 755 mmHg 78%
    16:00 +5°C° 0.5 mm 9 mps 757 mmHg 77%
    17:00 +4°C° 0.5 mm 8 mps 758 mmHg 77%
    18:00 +4°C° 0.5 mm 7 mps 759 mmHg 76%
    19:00 +4°C° 0.1 mm 7 mps 760 mmHg 75%
    20:00 +4°C° 0.1 mm 6 mps 761 mmHg 73%
    21:00 +3°C° 0.1 mm 6 mps 762 mmHg 72%
    22:00 +3°C° 0.1 mm 5 mps 762 mmHg 72%
    23:00 +3°C° 0.1 mm 5 mps 762 mmHg 73%
    Show more